Time,TemperatureF,DewpointF,PressureIn,WindDirection,WindDirectionDegrees,WindSpeedMPH,WindSpeedGustMPH,Humidity,HourlyPrecipIn,Conditions,Clouds,dailyrainin,SolarRadiationWatts/m^2,SoftwareType,DateUTC
2013-09-27 00:05:00,51.8,51.0,29.79,NNE,24,0.0,0.0,97,0.00,,,0.00,0,weatherlink.com 1.10,2013-09-27 04:05:00,
2013-09-27 00:20:00,52.1,51.0,29.79,NNE,24,0.0,1.0,97,0.00,,,0.00,0,weatherlink.com 1.10,2013-09-27 04:20:00,
2013-09-27 00:35:00,52.3,52.0,29.80,NNE,24,0.0,1.0,97,0.00,,,0.00,0,weatherlink.com 1.10,2013-09-27 04:35:00,
2013-09-27 00:50:00,52.5,52.0,29.80,NNE,24,1.0,2.0,97,0.00,,,0.00,0,weatherlink.com 1.10,2013-09-27 04:50:00,
2013-09-27 01:05:00,52.5,52.0,29.81,NNE,24,1.0,3.0,97,0.00,,,0.00,0,weatherlink.com 1.10,2013-09-27 05:05:00,
2013-09-27 01:20:00,52.6,52.0,29.81,NNE,24,0.0,2.0,97,0.00,,,0.00,0,weatherlink.com 1.10,2013-09-27 05:20:00,
2013-09-27 01:35:00,52.8,52.0,29.81,NNE,24,1.0,2.0,97,0.00,,,0.00,0,weatherlink.com 1.10,2013-09-27 05:35:00,
2013-09-27 02:05:00,53.1,52.0,29.81,NNE,24,0.0,2.0,97,0.00,,,0.00,0,weatherlink.com 1.10,2013-09-27 06:05:00,
2013-09-27 02:20:00,53.3,52.0,29.81,NNE,24,0.0,0.0,96,0.00,,,0.00,0,weatherlink.com 1.10,2013-09-27 06:20:00,
2013-09-27 02:35:00,53.4,52.0,29.81,NNE,24,0.0,1.0,96,0.00,,,0.00,0,weatherlink.com 1.10,2013-09-27 06:35:00,
2013-09-27 02:50:00,53.5,52.0,29.81,NNE,24,0.0,1.0,95,0.00,,,0.00,0,weatherlink.com 1.10,2013-09-27 06:50:00,
2013-09-27 03:05:00,53.8,52.0,29.81,NW,310,1.0,4.0,94,0.00,,,0.00,0,weatherlink.com 1.10,2013-09-27 07:05:00,
2013-09-27 03:20:00,54.0,52.0,29.81,NW,311,0.0,3.0,93,0.00,,,0.00,0,weatherlink.com 1.10,2013-09-27 07:20:00,
2013-09-27 03:35:00,54.1,52.0,29.81,NW,311,0.0,3.0,92,0.00,,,0.00,0,weatherlink.com 1.10,2013-09-27 07:35:00,
2013-09-27 03:50:00,54.2,52.0,29.81,NW,311,0.0,0.0,92,0.00,,,0.00,0,weatherlink.com 1.10,2013-09-27 07:50:00,
2013-09-27 04:05:00,54.2,52.0,29.81,NW,311,0.0,1.0,92,0.00,,,0.00,0,weatherlink.com 1.10,2013-09-27 08:05:00,
2013-09-27 04:21:00,54.1,52.0,29.82,NW,311,0.0,0.0,92,0.00,,,0.00,0,weatherlink.com 1.10,2013-09-27 08:21:00,
2013-09-27 04:36:00,54.2,52.0,29.82,NW,311,0.0,2.0,92,0.00,,,0.00,0,weatherlink.com 1.10,2013-09-27 08:36:00,
2013-09-27 04:51:00,54.1,52.0,29.82,NW,311,0.0,0.0,92,0.00,,,0.00,0,weatherlink.com 1.10,2013-09-27 08:51:00,
2013-09-27 05:06:00,54.1,52.0,29.82,NW,311,0.0,0.0,92,0.00,,,0.00,0,weatherlink.com 1.10,2013-09-27 09:06:00,
2013-09-27 05:21:00,54.1,52.0,29.83,NW,311,0.0,0.0,92,0.00,,,0.00,0,weatherlink.com 1.10,2013-09-27 09:21:00,
2013-09-27 05:36:00,54.0,52.0,29.83,NW,311,0.0,1.0,93,0.00,,,0.00,0,weatherlink.com 1.10,2013-09-27 09:36:00,
2013-09-27 05:51:00,54.0,52.0,29.83,NW,311,0.0,3.0,92,0.00,,,0.00,0,weatherlink.com 1.10,2013-09-27 09:51:00,
2013-09-27 06:06:00,54.1,52.0,29.84,NW,311,0.0,3.0,92,0.00,,,0.00,0,weatherlink.com 1.10,2013-09-27 10:06:00,
2013-09-27 06:21:00,54.2,52.0,29.84,NW,311,0.0,2.0,91,0.00,,,0.00,0,weatherlink.com 1.10,2013-09-27 10:21:00,
2013-09-27 06:36:00,54.3,52.0,29.84,NW,311,0.0,2.0,91,0.00,,,0.00,0,weatherlink.com 1.10,2013-09-27 10:36:00,
2013-09-27 06:51:00,54.4,52.0,29.85,NW,311,0.0,2.0,90,0.00,,,0.00,0,weatherlink.com 1.10,2013-09-27 10:51:00,
2013-09-27 07:06:00,54.5,52.0,29.85,NW,311,1.0,2.0,90,0.00,,,0.00,7,weatherlink.com 1.10,2013-09-27 11:06:00,
2013-09-27 07:21:00,54.6,52.0,29.86,NW,311,1.0,2.0,91,0.00,,,0.00,14,weatherlink.com 1.10,2013-09-27 11:21:00,
2013-09-27 07:36:00,54.8,52.0,29.86,NW,311,1.0,2.0,90,0.00,,,0.00,19,weatherlink.com 1.10,2013-09-27 11:36:00,
2013-09-27 07:51:00,55.0,52.0,29.86,NW,315,0.0,4.0,90,0.00,,,0.00,28,weatherlink.com 1.10,2013-09-27 11:51:00,
2013-09-27 08:06:00,55.3,52.0,29.87,NNW,333,2.0,4.0,89,0.00,,,0.00,35,weatherlink.com 1.10,2013-09-27 12:06:00,
2013-09-27 08:21:00,55.7,52.0,29.88,NW,313,1.0,4.0,88,0.00,,,0.00,44,weatherlink.com 1.10,2013-09-27 12:21:00,
2013-09-27 08:36:00,56.1,52.0,29.88,NNW,328,3.0,4.0,87,0.00,,,0.00,62,weatherlink.com 1.10,2013-09-27 12:36:00,
2013-09-27 08:51:00,56.5,53.0,29.88,NNW,343,2.0,4.0,87,0.00,,,0.00,79,weatherlink.com 1.10,2013-09-27 12:51:00,
2013-09-27 09:06:00,56.8,53.0,29.88,NNW,348,0.0,5.0,87,0.00,,,0.00,77,weatherlink.com 1.10,2013-09-27 13:06:00,
2013-09-27 09:21:00,57.2,53.0,29.89,North,5,2.0,6.0,86,0.00,,,0.00,97,weatherlink.com 1.10,2013-09-27 13:21:00,
2013-09-27 09:36:00,57.6,53.0,29.89,NNE,13,5.0,7.0,84,0.00,,,0.00,111,weatherlink.com 1.10,2013-09-27 13:36:00,
2013-09-27 09:51:00,58.0,53.0,29.89,North,5,3.0,6.0,83,0.00,,,0.00,144,weatherlink.com 1.10,2013-09-27 13:51:00,
2013-09-27 10:06:00,58.6,53.0,29.89,NNE,32,2.0,5.0,82,0.00,,,0.00,183,weatherlink.com 1.10,2013-09-27 14:06:00,
2013-09-27 10:21:00,59.3,53.0,29.89,North,9,2.0,6.0,80,0.00,,,0.00,279,weatherlink.com 1.10,2013-09-27 14:21:00,
2013-09-27 10:37:00,60.2,53.0,29.90,NNW,327,4.0,8.0,78,0.00,,,0.00,343,weatherlink.com 1.10,2013-09-27 14:37:00,
2013-09-27 10:52:00,61.3,53.0,29.90,NE,36,4.0,9.0,75,0.00,,,0.00,366,weatherlink.com 1.10,2013-09-27 14:52:00,
2013-09-27 11:07:00,61.8,54.0,29.89,NNW,344,4.0,8.0,75,0.00,,,0.00,394,weatherlink.com 1.10,2013-09-27 15:07:00,
2013-09-27 11:22:00,62.3,53.0,29.89,NNE,12,4.0,10.0,72,0.00,,,0.00,410,weatherlink.com 1.10,2013-09-27 15:22:00,
2013-09-27 11:37:00,63.0,54.0,29.90,NNE,12,5.0,8.0,72,0.00,,,0.00,397,weatherlink.com 1.10,2013-09-27 15:37:00,
2013-09-27 11:52:00,63.6,54.0,29.90,NNE,33,4.0,8.0,70,0.00,,,0.00,415,weatherlink.com 1.10,2013-09-27 15:52:00,
2013-09-27 12:07:00,63.7,53.0,29.90,North,5,6.0,9.0,69,0.00,,,0.00,406,weatherlink.com 1.10,2013-09-27 16:07:00,
2013-09-27 12:22:00,63.9,54.0,29.89,North,5,5.0,8.0,71,0.00,,,0.00,527,weatherlink.com 1.10,2013-09-27 16:22:00,
2013-09-27 12:37:00,64.2,54.0,29.89,North,360,4.0,9.0,70,0.00,,,0.00,524,weatherlink.com 1.10,2013-09-27 16:37:00,
2013-09-27 12:52:00,64.4,54.0,29.89,NNE,22,4.0,7.0,70,0.00,,,0.00,336,weatherlink.com 1.10,2013-09-27 16:52:00,
2013-09-27 13:07:00,65.0,54.0,29.89,NE,40,7.0,10.0,68,0.00,,,0.00,320,weatherlink.com 1.10,2013-09-27 17:07:00,
2013-09-27 13:22:00,64.3,53.0,29.88,NE,37,4.0,8.0,68,0.00,,,0.00,271,weatherlink.com 1.10,2013-09-27 17:22:00,
2013-09-27 13:37:00,64.8,55.0,29.88,NE,38,5.0,9.0,70,0.00,,,0.00,359,weatherlink.com 1.10,2013-09-27 17:37:00,
2013-09-27 13:52:00,64.3,54.0,29.88,NNE,25,2.0,7.0,69,0.00,,,0.00,171,weatherlink.com 1.10,2013-09-27 17:52:00,
2013-09-27 14:07:00,63.9,54.0,29.88,NE,34,2.0,8.0,70,0.00,,,0.00,308,weatherlink.com 1.10,2013-09-27 18:07:00,
2013-09-27 14:22:00,64.1,55.0,29.88,NNE,32,1.0,10.0,71,0.00,,,0.00,111,weatherlink.com 1.10,2013-09-27 18:22:00,
2013-09-27 14:37:00,63.7,55.0,29.88,NNE,23,3.0,7.0,73,0.00,,,0.00,227,weatherlink.com 1.10,2013-09-27 18:37:00,
2013-09-27 14:53:00,64.2,55.0,29.87,NE,35,1.0,6.0,72,0.00,,,0.00,306,weatherlink.com 1.10,2013-09-27 18:53:00,
2013-09-27 15:07:00,64.6,55.0,29.87,NNE,26,5.0,7.0,70,0.00,,,0.00,128,weatherlink.com 1.10,2013-09-27 19:07:00,
2013-09-27 15:22:00,64.3,55.0,29.87,North,355,2.0,5.0,71,0.00,,,0.00,197,weatherlink.com 1.10,2013-09-27 19:22:00,
2013-09-27 15:37:00,64.4,55.0,29.87,NNE,30,2.0,6.0,72,0.00,,,0.00,142,weatherlink.com 1.10,2013-09-27 19:37:00,
2013-09-27 15:52:00,64.3,55.0,29.87,NNE,29,4.0,4.0,72,0.00,,,0.00,186,weatherlink.com 1.10,2013-09-27 19:52:00,
2013-09-27 16:07:00,64.3,54.0,29.87,NNE,19,4.0,7.0,70,0.00,,,0.00,192,weatherlink.com 1.10,2013-09-27 20:07:00,
2013-09-27 16:22:00,64.5,55.0,29.87,NE,36,2.0,8.0,70,0.00,,,0.00,151,weatherlink.com 1.10,2013-09-27 20:22:00,
2013-09-27 16:37:00,64.4,55.0,29.87,NNE,30,4.0,6.0,71,0.00,,,0.00,171,weatherlink.com 1.10,2013-09-27 20:37:00,
2013-09-27 16:52:00,65.1,54.0,29.87,NNE,28,4.0,6.0,68,0.00,,,0.00,227,weatherlink.com 1.10,2013-09-27 20:52:00,
2013-09-27 17:07:00,65.4,55.0,29.88,North,360,1.0,5.0,69,0.00,,,0.00,218,weatherlink.com 1.10,2013-09-27 21:07:00,
2013-09-27 17:22:00,65.6,55.0,29.88,NNE,29,2.0,4.0,68,0.00,,,0.00,162,weatherlink.com 1.10,2013-09-27 21:22:00,
2013-09-27 17:37:00,65.4,55.0,29.88,NNE,29,0.0,3.0,69,0.00,,,0.00,33,weatherlink.com 1.10,2013-09-27 21:37:00,
2013-09-27 17:52:00,64.9,55.0,29.88,NNE,29,1.0,3.0,71,0.00,,,0.00,21,weatherlink.com 1.10,2013-09-27 21:52:00,
2013-09-27 18:07:00,63.9,55.0,29.88,NNE,29,0.0,0.0,74,0.00,,,0.00,16,weatherlink.com 1.10,2013-09-27 22:07:00,
2013-09-27 18:22:00,62.3,55.0,29.88,NNE,29,0.0,0.0,78,0.00,,,0.00,9,weatherlink.com 1.10,2013-09-27 22:22:00,
2013-09-27 18:37:00,60.3,55.0,29.88,NNE,29,0.0,0.0,82,0.00,,,0.00,0,weatherlink.com 1.10,2013-09-27 22:37:00,
2013-09-27 18:52:00,58.7,54.0,29.89,NNE,29,0.0,0.0,84,0.00,,,0.00,0,weatherlink.com 1.10,2013-09-27 22:52:00,
2013-09-27 19:07:00,57.3,53.0,29.89,NNE,29,0.0,0.0,86,0.00,,,0.00,0,weatherlink.com 1.10,2013-09-27 23:07:00,
2013-09-27 19:22:00,56.3,52.0,29.89,NNE,29,0.0,0.0,86,0.00,,,0.00,0,weatherlink.com 1.10,2013-09-27 23:22:00,
2013-09-27 19:37:00,55.4,52.0,29.89,NNE,29,0.0,0.0,87,0.00,,,0.00,0,weatherlink.com 1.10,2013-09-27 23:37:00,
2013-09-27 19:52:00,54.5,51.0,29.90,NNE,29,0.0,0.0,88,0.00,,,0.00,0,weatherlink.com 1.10,2013-09-27 23:52:00,
2013-09-27 20:07:00,53.3,50.0,29.90,NNE,29,0.0,0.0,88,0.00,,,0.00,0,weatherlink.com 1.10,2013-09-28 00:07:00,
2013-09-27 20:22:00,52.5,50.0,29.90,NNE,29,0.0,0.0,90,0.00,,,0.00,0,weatherlink.com 1.10,2013-09-28 00:22:00,
2013-09-27 20:37:00,51.8,49.0,29.91,NNE,29,0.0,0.0,90,0.00,,,0.00,0,weatherlink.com 1.10,2013-09-28 00:37:00,
2013-09-27 20:52:00,51.2,49.0,29.91,NNE,29,0.0,0.0,91,0.00,,,0.00,0,weatherlink.com 1.10,2013-09-28 00:52:00,
2013-09-27 21:07:00,50.7,48.0,29.91,NNE,29,0.0,0.0,91,0.00,,,0.00,0,weatherlink.com 1.10,2013-09-28 01:07:00,
2013-09-27 21:22:00,50.1,48.0,29.91,NNE,29,0.0,0.0,91,0.00,,,0.00,0,weatherlink.com 1.10,2013-09-28 01:22:00,
2013-09-27 21:37:00,49.6,47.0,29.92,NNE,29,0.0,0.0,92,0.00,,,0.00,0,weatherlink.com 1.10,2013-09-28 01:37:00,
2013-09-27 21:52:00,49.2,47.0,29.92,NNE,29,0.0,0.0,93,0.00,,,0.00,0,weatherlink.com 1.10,2013-09-28 01:52:00,
2013-09-27 22:07:00,48.8,47.0,29.93,NNE,29,0.0,0.0,93,0.00,,,0.00,0,weatherlink.com 1.10,2013-09-28 02:07:00,
2013-09-27 22:22:00,48.5,47.0,29.93,NNE,29,0.0,0.0,93,0.00,,,0.00,0,weatherlink.com 1.10,2013-09-28 02:22:00,
2013-09-27 22:37:00,48.1,46.0,29.93,NNE,29,0.0,0.0,93,0.00,,,0.00,0,weatherlink.com 1.10,2013-09-28 02:37:00,
2013-09-27 22:53:00,47.7,46.0,29.93,NNE,29,0.0,0.0,94,0.00,,,0.00,0,weatherlink.com 1.10,2013-09-28 02:53:00,
2013-09-27 23:08:00,47.3,45.0,29.93,NNE,29,0.0,0.0,93,0.00,,,0.00,0,weatherlink.com 1.10,2013-09-28 03:08:00,
2013-09-27 23:23:00,46.9,45.0,29.93,NNE,29,0.0,0.0,93,0.00,,,0.00,0,weatherlink.com 1.10,2013-09-28 03:23:00,
2013-09-27 23:38:00,46.6,45.0,29.93,NNE,29,0.0,0.0,94,0.00,,,0.00,0,weatherlink.com 1.10,2013-09-28 03:38:00,
2013-09-27 23:53:00,46.3,45.0,29.93,NNE,29,0.0,0.0,94,0.00,,,0.00,0,weatherlink.com 1.10,2013-09-28 03:53:00,